User: anonymous   Login
Location: Unspecified
(0.0000°N, 0.0000°E)
Time: 00:03:47
(UTC+00:00)
Language:

Atlas Centaur 2 - Orbit

View from above orbital plane
View from above orbital plane
View from above satellite
View from above satellite

Ground track
Ground track

The orbit data is extracted from the following two-line orbital elements,

1 00694U 63047A   17323.51541102  .00000696  00000-0  76564-4 0  9997
2 00694  30.3613  30.2337 0587511 299.1876  55.1180 14.02222959704539
Epoch (UTC): 19 November 2017 12:22:11
Eccentricity: 0.0587511
inclination: 30.3613°
perigee height: 459 km
apogee height: 1313 km
right ascension of ascending node: 30.2337°
argument of perigee: 299.1876°
revolutions per day: 14.02222959
mean anomaly at epoch: 55.1180°
orbit number at epoch: 70453

The dashed part of the orbit path shows where the satellite is in the earth's shadow,  

DLR